DW9145 Weather Reports


Display with metric or nautical units.
time (UTC)temp
F
wind
direction
speed
MPH
gust
MPH
rain 1hr
in
rain 24hr
in
rain mn
in
humidity
%
barometer
mb
20260906154004 74 258 2.0 7.0 0.00 0.00 0.00 70 1021.0
20260906153504 73 81 0.0 7.0 0.00 0.00 0.00 73 1021.1
20260906153004 73 250 2.0 5.0 0.00 0.00 0.00 73 1021.2
20260906152504 72 290 0.0 5.0 0.00 0.00 0.00 76 1021.3
20260906152004 72 264 1.0 3.0 0.00 0.00 0.00 78 1021.2
20260906151004 71 253 1.0 2.0 0.00 0.00 0.00 78 1021.4
20260906150004 70 276 1.0 5.0 0.00 0.00 0.00 80 1021.4
20260906145503 70 160 1.0 3.0 0.00 0.00 0.00 82 1021.3
20260906145005 69 300 0.0 5.0 0.00 0.00 0.00 83 1021.3
20260906144504 69 274 2.0 5.0 0.00 0.00 0.00 84 1021.3
20260906144005 69 257 0.0 3.0 0.00 0.00 0.00 84 1021.3
20260906143504 69 254 0.0 2.0 0.00 0.00 0.00 82 1021.2
20260906142504 68 235 1.0 2.0 0.00 0.00 0.00 77 1020.9
20260906142005 67 259 1.0 3.0 0.00 0.00 0.00 74 1020.9
20260906141504 67 279 2.0 3.0 0.00 0.00 0.00 73 1020.8
20260906141004 67 261 1.0 3.0 0.00 0.00 0.00 72 1020.8
20260906140004 66 258 1.0 2.0 0.00 0.00 0.00 72 1020.9
20260906135504 66 256 0.0 2.0 0.00 0.00 0.00 72 1021.0
20260906135004 66 300 0.0 0.0 0.00 0.00 0.00 72 1021.0
20260906134504 65 300 0.0 1.0 0.00 0.00 0.00 72 1020.8
20260906134004 65 300 0.0 0.0 0.00 0.00 0.00 73 1020.8
20260906133004 65 300 0.0 1.0 0.00 0.00 0.00 73 1021.1
20260906132504 64 300 0.0 1.0 0.00 0.00 0.00 73 1020.9
20260906132004 64 300 0.0 0.0 0.00 0.00 0.00 73 1020.9
20260906131504 64 300 0.0 0.0 0.00 0.00 0.00 74 1020.9
20260906131004 64 300 0.0 1.0 0.00 0.00 0.00 74 1020.9
20260906130504 63 300 0.0 0.0 0.00 0.00 0.00 75 1020.9
20260906130004 63 300 0.0 0.0 0.00 0.00 0.00 75 1021.0
20260906125505 63 300 0.0 0.0 0.00 0.00 0.00 75 1021.1
20260906125004 62 300 0.0 0.0 0.00 0.00 0.00 76 1020.9
20260906124004 62 300 0.0 0.0 0.00 0.00 0.00 77 1020.9
20260906123504 62 300 0.0 0.0 0.00 0.00 0.00 78 1020.8
20260906123004 62 300 0.0 0.0 0.00 0.00 0.00 78 1020.8
20260906122504 62 300 0.0 0.0 0.00 0.00 0.00 78 1020.8
20260906122004 62 300 0.0 0.0 0.00 0.00 0.00 78 1020.6
20260906121505 62 300 0.0 0.0 0.00 0.00 0.00 79 1020.6
20260906121004 62 300 0.0 0.0 0.00 0.00 0.00 78 1020.4
20260906120504 62 300 0.0 0.0 0.00 0.00 0.00 79 1020.4
20260906120004 62 300 0.0 0.0 0.00 0.00 0.00 79 1020.4
20260906115004 62 300 0.0 0.0 0.00 0.00 0.00 79 1020.3
20260906114504 62 300 0.0 0.0 0.00 0.00 0.00 79 1020.3
20260906114004 62 300 0.0 0.0 0.00 0.00 0.00 79 1020.1
20260906113504 62 300 0.0 0.0 0.00 0.00 0.00 79 1020.0
20260906112504 62 300 0.0 0.0 0.00 0.00 0.00 80 1019.9
20260906112004 62 300 0.0 0.0 0.00 0.00 0.00 80 1019.8
20260906110504 62 300 0.0 0.0 0.00 0.00 0.00 79 1019.8
20260906110004 63 300 0.0 0.0 0.00 0.00 0.00 79 1019.8
20260906105504 63 300 0.0 0.0 0.00 0.00 0.00 79 1019.8
20260906104004 63 300 0.0 0.0 0.00 0.00 0.00 80 1020.0
20260906103504 63 300 0.0 0.0 0.00 0.00 0.00 80 1020.0
20260906103004 63 300 0.0 0.0 0.00 0.00 0.00 80 1019.9
20260906102504 63 300 0.0 0.0 0.00 0.00 0.00 80 1019.9
20260906101504 63 300 0.0 0.0 0.00 0.00 0.00 80 1019.8
20260906101004 63 300 0.0 0.0 0.00 0.00 0.00 80 1019.7
20260906100504 63 300 0.0 0.0 0.00 0.00 0.00 80 1019.7
20260906100004 63 300 0.0 0.0 0.00 0.00 0.00 79 1019.8
20260906095504 64 300 0.0 0.0 0.00 0.00 0.00 79 1019.8
20260906095005 64 300 0.0 0.0 0.00 0.00 0.00 80 1019.8
20260906094504 64 300 0.0 0.0 0.00 0.00 0.00 80 1019.9
20260906094004 64 300 0.0 0.0 0.00 0.00 0.00 80 1019.8
20260906093504 64 300 0.0 0.0 0.00 0.00 0.00 80 1019.8
20260906093004 64 300 0.0 0.0 0.00 0.00 0.00 80 1019.8
20260906092504 64 300 0.0 0.0 0.00 0.00 0.00 80 1019.8
20260906092004 64 300 0.0 0.0 0.00 0.00 0.00 80 1019.8
20260906091504 64 300 0.0 0.0 0.00 0.00 0.00 80 1019.6
20260906091005 64 300 0.0 0.0 0.00 0.00 0.00 80 1019.7
20260906090503 64 300 0.0 0.0 0.00 0.00 0.00 80 1019.9
20260906090004 64 300 0.0 0.0 0.00 0.00 0.00 80 1019.8
20260906085504 63 300 0.0 0.0 0.00 0.00 0.00 80 1019.8
20260906085004 63 300 0.0 0.0 0.00 0.00 0.00 80 1019.8
20260906084504 63 300 0.0 0.0 0.00 0.00 0.00 80 1019.8
20260906084004 63 300 0.0 0.0 0.00 0.00 0.00 81 1019.8
20260906083504 63 300 0.0 0.0 0.00 0.00 0.00 81 1019.8
20260906083003 63 300 0.0 0.0 0.00 0.00 0.00 81 1019.7
20260906082504 63 300 0.0 0.0 0.00 0.00 0.00 81 1019.5
20260906082004 63 300 0.0 0.0 0.00 0.00 0.00 82 1019.5
20260906081504 63 300 0.0 0.0 0.00 0.00 0.00 82 1019.5
20260906081004 63 300 0.0 0.0 0.00 0.00 0.00 82 1019.5
20260906080504 63 300 0.0 0.0 0.00 0.00 0.00 82 1019.5
20260906080004 63 300 0.0 0.0 0.00 0.00 0.00 82 1019.3
20260906075504 63 300 0.0 0.0 0.00 0.00 0.00 82 1019.3
20260906075004 63 300 0.0 0.0 0.00 0.00 0.00 82 1019.4
20260906074504 63 300 0.0 0.0 0.00 0.00 0.00 82 1019.4
20260906074004 63 300 0.0 0.0 0.00 0.00 0.00 83 1019.4
20260906073504 63 300 0.0 0.0 0.00 0.00 0.00 83 1019.6
20260906073004 64 300 0.0 0.0 0.00 0.00 0.00 83 1019.6
20260906072504 64 300 0.0 0.0 0.00 0.00 0.00 83 1019.6
20260906072004 64 300 0.0 0.0 0.00 0.00 0.00 83 1019.6
20260906071504 64 300 0.0 0.0 0.00 0.00 0.00 83 1019.6
20260906071004 64 300 0.0 0.0 0.00 0.00 0.00 83 1019.6
20260906070504 64 300 0.0 0.0 0.00 0.00 0.00 83 1019.7
20260906065503 64 300 0.0 0.0 0.00 0.00 0.00 83 1019.6
20260906065004 64 300 0.0 0.0 0.00 0.00 0.00 83 1019.6
20260906064504 64 300 0.0 0.0 0.00 0.00 0.00 83 1019.6
20260906064004 64 300 0.0 0.0 0.00 0.00 0.00 83 1019.8
20260906063504 64 300 0.0 0.0 0.00 0.00 0.00 83 1019.8
20260906063004 64 300 0.0 0.0 0.00 0.00 0.00 83 1019.9
20260906062504 64 300 0.0 0.0 0.00 0.00 0.00 83 1019.9
20260906062004 64 300 0.0 0.0 0.00 0.00 0.00 83 1019.9
20260906061504 64 300 0.0 0.0 0.00 0.00 0.00 83 1019.9
20260906060004 64 300 0.0 0.0 0.00 0.00 0.00 83 1019.6
20260906055503 64 300 0.0 0.0 0.00 0.00 0.00 83 1019.8
20260906055004 64 300 0.0 0.0 0.00 0.00 0.00 83 1019.8
20260906054504 65 300 0.0 0.0 0.00 0.00 0.00 83 1019.8
20260906054004 65 300 0.0 0.0 0.00 0.00 0.00 83 1019.6
20260906053004 65 300 0.0 0.0 0.00 0.00 0.00 83 1019.3
20260906052504 65 300 0.0 0.0 0.00 0.00 0.00 83 1019.3
20260906051004 65 300 0.0 0.0 0.00 0.00 0.00 83 1019.6
20260906050504 65 300 0.0 0.0 0.00 0.00 0.00 83 1019.5
20260906050004 65 300 0.0 0.0 0.00 0.00 0.00 84 1019.6
20260906045504 65 300 0.0 0.0 0.00 0.00 0.00 84 1019.6
20260906045004 65 300 0.0 0.0 0.00 0.00 0.00 84 1019.6
20260906043504 65 300 0.0 0.0 0.00 0.00 0.00 84 1019.6
20260906043004 65 300 0.0 0.0 0.00 0.00 0.00 84 1019.4
20260906042504 65 300 0.0 0.0 0.00 0.00 0.00 84 1019.5
20260906042004 65 300 0.0 0.0 0.00 0.00 0.00 84 1019.6
20260906041004 66 300 0.0 0.0 0.00 0.00 0.00 84 1019.5
20260906040504 66 300 0.0 0.0 0.00 0.00 0.00 84 1019.5
20260906040004 66 300 0.0 0.0 0.00 0.00 0.00 84 1019.7
20260906035504 66 300 0.0 0.0 0.00 0.00 0.00 84 1019.7
20260906034504 66 300 0.0 0.0 0.00 0.00 0.00 84 1019.7
20260906033004 66 300 0.0 0.0 0.00 0.00 0.00 84 1019.2
20260906032504 66 300 0.0 0.0 0.00 0.00 0.00 84 1019.1
20260906032004 66 300 0.0 0.0 0.00 0.00 0.00 84 1019.0
20260906031004 66 300 0.0 0.0 0.00 0.00 0.00 83 1018.9
20260906030504 66 300 0.0 0.0 0.00 0.00 0.00 83 1018.8
20260906030004 66 300 0.0 0.0 0.00 0.00 0.00 84 1018.8
20260906025504 66 300 0.0 0.0 0.00 0.00 0.00 84 1018.5
20260906025004 66 300 0.0 0.0 0.00 0.00 0.00 84 1018.3
20260906024504 66 300 0.0 1.0 0.00 0.00 0.00 84 1018.2
20260906024004 66 300 0.0 0.0 0.00 0.00 0.00 84 1018.1
20260906022504 67 300 0.0 0.0 0.00 0.00 0.00 84 1018.0
20260906022004 67 300 0.0 0.0 0.00 0.00 0.00 84 1018.0
20260906021504 67 300 0.0 0.0 0.00 0.00 0.00 84 1017.9
20260906021004 67 300 0.0 0.0 0.00 0.00 0.00 84 1017.8
20260906020504 67 300 0.0 0.0 0.00 0.00 0.00 84 1017.9
20260906020004 67 300 0.0 0.0 0.00 0.00 0.00 84 1017.9
20260906015504 67 301 0.0 0.0 0.00 0.00 0.00 84 1017.8
20260906015004 67 301 0.0 0.0 0.00 0.00 0.00 83 1017.8
20260906014503 68 301 0.0 0.0 0.00 0.00 0.00 83 1017.8
20260906014006 68 301 0.0 0.0 0.00 0.00 0.00 83 1017.7
20260906013505 68 301 0.0 0.0 0.00 0.00 0.00 83 1017.7
20260906013005 68 301 0.0 0.0 0.00 0.00 0.00 83 1017.6
20260906012505 69 301 0.0 0.0 0.00 0.00 0.00 82 1017.6
20260906012005 69 301 0.0 0.0 0.00 0.00 0.00 82 1017.7
20260906011505 69 301 0.0 0.0 0.00 0.00 0.00 82 1017.7
20260906011005 70 301 0.0 0.0 0.00 0.00 0.00 82 1017.6
20260906010505 70 301 0.0 0.0 0.00 0.00 0.00 81 1017.7
20260906005505 71 301 0.0 0.0 0.00 0.00 0.00 80 1017.7
20260906005005 71 301 0.0 0.0 0.00 0.00 0.00 80 1017.8
20260906004006 72 301 0.0 0.0 0.00 0.00 0.00 80 1017.9
20260906003505 72 301 0.0 0.0 0.00 0.00 0.00 79 1017.9
20260906003005 73 301 0.0 0.0 0.00 0.00 0.00 79 1017.9
20260906002505 73 301 0.0 0.0 0.00 0.00 0.00 79 1017.8
20260906001005 74 301 0.0 0.0 0.00 0.00 0.00 78 1017.8
20260906000505 74 301 0.0 0.0 0.00 0.00 0.00 78 1017.7
20260905235505 75 301 0.0 0.0 0.00 0.00 0.00 78 1018.0
20260905235005 75 301 0.0 0.0 0.00 0.00 0.00 78 1017.9
20260905234005 75 301 0.0 0.0 0.00 0.00 0.00 77 1017.8
20260905233505 75 301 0.0 0.0 0.00 0.00 0.00 77 1017.7
20260905233005 76 301 0.0 0.0 0.00 0.00 0.00 77 1017.7
20260905232505 76 301 0.0 1.0 0.00 0.00 0.00 76 1017.8
20260905232005 76 301 0.0 2.0 0.00 0.00 0.00 76 1017.9
20260905231505 76 301 0.0 1.0 0.00 0.00 0.00 76 1017.9
20260905231005 76 300 0.0 0.0 0.00 0.00 0.00 75 1017.9
20260905230505 76 300 0.0 1.0 0.00 0.00 0.00 75 1018.1
20260905230005 76 300 0.0 2.0 0.00 0.00 0.00 75 1018.1
20260905225505 76 301 0.0 2.0 0.00 0.00 0.00 74 1018.2
20260905225005 77 277 0.0 2.0 0.00 0.00 0.00 74 1018.0
20260905224505 77 277 0.0 2.0 0.00 0.00 0.00 74 1018.1
20260905224005 77 277 0.0 2.0 0.00 0.00 0.00 73 1017.9
20260905223505 77 277 0.0 3.0 0.00 0.00 0.00 73 1017.9
20260905222505 78 277 0.0 3.0 0.00 0.00 0.00 72 1017.9
20260905222005 78 258 1.0 3.0 0.00 0.00 0.00 72 1018.0
20260905221505 79 249 1.0 2.0 0.00 0.00 0.00 71 1018.1
20260905220505 79 243 0.0 2.0 0.00 0.00 0.00 70 1018.1
20260905220004 79 238 0.0 1.0 0.00 0.00 0.00 70 1018.1
20260905215505 79 238 1.0 2.0 0.00 0.00 0.00 70 1018.1
20260905214505 79 283 1.0 2.0 0.00 0.00 0.00 71 1018.3
20260905214005 79 22 0.0 3.0 0.00 0.00 0.00 71 1018.4
20260905213505 79 229 2.0 5.0 0.00 0.00 0.00 71 1018.4
20260905213005 78 190 1.0 3.0 0.00 0.00 0.00 72 1018.5
20260905212504 78 209 1.0 3.0 0.00 0.00 0.00 72 1018.5
20260905212005 78 229 1.0 2.0 0.00 0.00 0.00 74 1018.5
20260905211505 77 227 1.0 3.0 0.00 0.00 0.00 73 1018.4
20260905211005 77 227 2.0 3.0 0.00 0.00 0.00 73 1018.5
20260905210505 77 199 0.0 3.0 0.00 0.00 0.00 74 1018.7
20260905210005 77 122 0.0 2.0 0.00 0.00 0.00 73 1018.8
20260905204005 78 238 2.0 5.0 0.00 0.00 0.00 73 1018.8
20260905203505 77 264 0.0 2.0 0.00 0.00 0.00 74 1018.7
20260905203005 76 264 1.0 3.0 0.00 0.00 0.00 75 1018.7
20260905202005 75 303 1.0 3.0 0.00 0.00 0.00 77 1018.9
20260905201505 75 311 0.0 3.0 0.00 0.00 0.00 77 1018.9
20260905200504 75 314 0.0 1.0 0.00 0.00 0.00 78 1018.9
20260905200005 74 317 0.0 0.0 0.00 0.00 0.00 79 1018.9
20260905195505 74 317 0.0 0.0 0.00 0.00 0.00 78 1018.9
20260905195005 74 317 1.0 2.0 0.00 0.00 0.00 77 1018.9
20260905194505 74 321 0.0 1.0 0.00 0.00 0.00 78 1018.9
20260905193505 74 321 0.0 1.0 0.00 0.00 0.00 79 1018.8
20260905193005 74 321 0.0 1.0 0.00 0.00 0.00 80 1018.7
20260905192505 74 325 0.0 1.0 0.00 0.00 0.00 79 1018.7
20260905192005 74 325 0.0 1.0 0.00 0.00 0.00 79 1018.7
20260905191505 74 344 0.0 0.0 0.00 0.00 0.00 80 1018.8
20260905190505 73 344 0.0 0.0 0.00 0.00 0.00 80 1018.8
20260905190004 73 344 0.0 0.0 0.00 0.00 0.00 80 1018.8
20260905185505 73 344 0.0 0.0 0.00 0.00 0.00 81 1018.8
20260905185005 73 344 0.0 0.0 0.00 0.00 0.00 81 1018.8
20260905184504 73 344 0.0 1.0 0.00 0.00 0.00 81 1018.8
20260905184005 73 344 0.0 1.0 0.00 0.00 0.00 81 1018.9
20260905183505 73 344 0.0 0.0 0.00 0.00 0.00 81 1019.1
20260905183005 73 344 0.0 0.0 0.00 0.00 0.00 81 1019.2
20260905182505 73 344 0.0 1.0 0.00 0.00 0.00 81 1019.2
20260905182005 73 344 0.0 0.0 0.00 0.00 0.00 81 1019.2
20260905181005 72 344 0.0 0.0 0.00 0.00 0.00 81 1019.3
20260905180505 72 344 0.0 0.0 0.00 0.00 0.00 82 1019.2
20260905180005 72 344 0.0 0.0 0.00 0.00 0.00 82 1019.2
20260905175505 72 344 0.0 0.0 0.00 0.00 0.00 82 1019.4
20260905175005 72 344 0.0 0.0 0.00 0.00 0.00 82 1019.4
20260905174505 72 344 0.0 1.0 0.00 0.00 0.00 82 1019.4
20260905174005 72 344 0.0 2.0 0.00 0.00 0.00 82 1019.4
20260905173505 71 344 0.0 3.0 0.00 0.00 0.00 82 1019.5
20260905173005 72 32 0.0 2.0 0.00 0.00 0.00 82 1019.5
20260905172505 72 280 0.0 2.0 0.00 0.00 0.00 82 1019.5
20260905172005 72 278 0.0 0.0 0.00 0.00 0.00 83 1019.5
20260905171504 71 278 0.0 1.0 0.00 0.00 0.00 83 1019.3
20260905171005 71 278 0.0 0.0 0.00 0.00 0.00 83 1019.3
20260905170505 71 278 0.0 0.0 0.00 0.00 0.00 83 1019.3
20260905170005 71 278 0.0 0.0 0.00 0.00 0.00 83 1019.4
20260905165505 71 278 0.0 0.0 0.00 0.00 0.00 83 1019.6
20260905165005 71 278 0.0 0.0 0.00 0.00 0.00 83 1019.6
20260905164504 71 278 0.0 0.0 0.00 0.00 0.00 83 1019.7
20260905164005 71 278 0.0 0.0 0.00 0.00 0.00 83 1019.6
20260905163505 71 278 0.0 1.0 0.00 0.00 0.00 84 1019.6
20260905163005 71 277 0.0 1.0 0.00 0.00 0.00 84 1019.5
20260905162505 71 277 0.0 0.0 0.00 0.00 0.00 84 1019.5
20260905162005 70 277 0.0 0.0 0.00 0.00 0.00 84 1019.6
20260905161505 71 277 0.0 0.0 0.00 0.00 0.00 84 1019.6
20260905160505 70 278 0.0 0.0 0.00 0.00 0.00 84 1019.6
20260905160005 70 278 0.0 3.0 0.00 0.00 0.00 84 1019.5
20260905155505 70 283 1.0 3.0 0.00 0.00 0.00 84 1019.5
20260905155005 70 313 0.0 1.0 0.00 0.00 0.00 84 1019.5
20260905154505 70 344 0.0 0.0 0.00 0.00 0.00 84 1019.4